• In Portugal
  • List of Countries
  • For 7 days
  • Water Temperature
  • Satellite Maps
  • Weather Map
  • Weather Widgets
  • user-avatar
    Login

    Hourly Weather Adıyaman

    Today, 23 October, Monday

    Time Temperature Precipitation Wind Pressure Humidity
    00:00 +16°C° 0 mm 0 mps 702 mmHg 31%
    01:00 +16°C° 0 mm 0 mps 702 mmHg 31%
    02:00 +16°C° 0 mm 0 mps 701 mmHg 32%
    03:00 +15°C° 0 mm 0 mps 701 mmHg 32%
    04:00 +15°C° 0 mm 0 mps 701 mmHg 33%
    05:00 +15°C° 0 mm 1 mps 701 mmHg 33%
    06:00 +15°C° 0 mm 1 mps 701 mmHg 33%
    07:00 +18°C° 0 mm 1 mps 702 mmHg 30%
    08:00 +19°C° 0 mm 1 mps 702 mmHg 27%
    09:00 +21°C° 0 mm 1 mps 703 mmHg 23%
    10:00 +21°C° 0 mm 2 mps 703 mmHg 22%
    11:00 +23°C° 0 mm 2 mps 703 mmHg 21%
    12:00 +24°C° 0 mm 2 mps 703 mmHg 20%
    13:00 +25°C° 0 mm 2 mps 703 mmHg 20%
    14:00 +25°C° 0 mm 2 mps 702 mmHg 20%
    15:00 +25°C° 0 mm 3 mps 702 mmHg 20%
    16:00 +24°C° 0 mm 2 mps 702 mmHg 22%
    17:00 +23°C° 0 mm 2 mps 702 mmHg 25%
    18:00 +21°C° 0 mm 2 mps 702 mmHg 27%
    19:00 +21°C° 0 mm 1 mps 702 mmHg 29%
    20:00 +21°C° 0 mm 1 mps 702 mmHg 30%
    21:00 +20°C° 0 mm 1 mps 702 mmHg 31%
    22:00 +20°C° 0 mm 1 mps 702 mmHg 33%
    23:00 +19°C° 0 mm 1 mps 702 mmHg 34%

    Tomorrow, 24 October, Tuesday

    Time Temperature Precipitation Wind Pressure Humidity
    00:00 +19°C° 0 mm 1 mps 702 mmHg 35%
    01:00 +18°C° 0 mm 1 mps 702 mmHg 36%
    02:00 +18°C° 0 mm 1 mps 702 mmHg 37%
    03:00 +18°C° 0 mm 1 mps 702 mmHg 39%
    04:00 +16°C° 0 mm 1 mps 702 mmHg 40%
    05:00 +16°C° 0 mm 1 mps 702 mmHg 41%
    06:00 +16°C° 0 mm 1 mps 702 mmHg 42%
    07:00 +17°C° 0 mm 2 mps 702 mmHg 39%
    08:00 +18°C° 0 mm 2 mps 703 mmHg 36%
    09:00 +20°C° 0 mm 2 mps 703 mmHg 32%
    10:00 +21°C° 0 mm 3 mps 703 mmHg 30%
    11:00 +24°C° 0 mm 3 mps 703 mmHg 27%
    12:00 +25°C° 0 mm 3 mps 703 mmHg 24%
    13:00 +26°C° 0 mm 4 mps 703 mmHg 22%
    14:00 +26°C° 0 mm 4 mps 703 mmHg 21%
    15:00 +27°C° 0 mm 4 mps 702 mmHg 19%
    16:00 +26°C° 0 mm 3 mps 702 mmHg 21%
    17:00 +25°C° 0 mm 3 mps 702 mmHg 22%
    18:00 +24°C° 0 mm 2 mps 702 mmHg 23%
    19:00 +23°C° 0 mm 2 mps 702 mmHg 24%
    20:00 +21°C° 0 mm 2 mps 703 mmHg 26%
    21:00 +21°C° 0 mm 2 mps 703 mmHg 27%
    22:00 +20°C° 0 mm 2 mps 703 mmHg 29%
    23:00 +20°C° 0 mm 2 mps 703 mmHg 30%

    Day after tomorrow, 25 October, Wednesday

    Time Temperature Precipitation Wind Pressure Humidity
    00:00 +19°C° 0 mm 2 mps 703 mmHg 32%
    01:00 +19°C° 0 mm 2 mps 703 mmHg 33%
    02:00 +18°C° 0 mm 2 mps 703 mmHg 34%
    03:00 +18°C° 0 mm 2 mps 703 mmHg 35%
    04:00 +17°C° 0 mm 2 mps 703 mmHg 35%
    05:00 +17°C° 0 mm 2 mps 703 mmHg 36%
    06:00 +17°C° 0 mm 2 mps 703 mmHg 36%
    07:00 +18°C° 0 mm 2 mps 704 mmHg 33%
    08:00 +19°C° 0 mm 2 mps 704 mmHg 30%
    09:00 +21°C° 0 mm 3 mps 705 mmHg 27%
    10:00 +22°C° 0 mm 3 mps 705 mmHg 24%
    11:00 +25°C° 0 mm 3 mps 704 mmHg 22%
    12:00 +26°C° 0 mm 4 mps 704 mmHg 20%
    13:00 +26°C° 0 mm 3 mps 704 mmHg 19%
    14:00 +27°C° 0 mm 3 mps 704 mmHg 19%
    15:00 +27°C° 0 mm 3 mps 703 mmHg 18%
    16:00 +26°C° 0 mm 3 mps 703 mmHg 20%
    17:00 +25°C° 0 mm 2 mps 703 mmHg 22%
    18:00 +23°C° 0 mm 1 mps 703 mmHg 24%
    19:00 +22°C° 0 mm 1 mps 703 mmHg 26%
    20:00 +22°C° 0 mm 1 mps 704 mmHg 28%
    21:00 +21°C° 0 mm 1 mps 704 mmHg 29%
    22:00 +20°C° 0 mm 1 mps 704 mmHg 31%
    23:00 +20°C° 0 mm 1 mps 704 mmHg 32%

    26 October, Thursday

    Time Temperature Precipitation Wind Pressure Humidity
    00:00 +19°C° 0 mm 1 mps 704 mmHg 34%
    01:00 +19°C° 0 mm 1 mps 704 mmHg 36%
    02:00 +18°C° 0 mm 1 mps 704 mmHg 38%
    03:00 +18°C° 0 mm 1 mps 704 mmHg 40%
    04:00 +16°C° 0 mm 1 mps 704 mmHg 42%
    05:00 +16°C° 0 mm 1 mps 704 mmHg 43%
    06:00 +16°C° 0 mm 1 mps 704 mmHg 45%
    07:00 +18°C° 0 mm 1 mps 704 mmHg 42%
    08:00 +19°C° 0 mm 1 mps 704 mmHg 39%
    09:00 +21°C° 0 mm 1 mps 705 mmHg 36%
    10:00 +22°C° 0 mm 1 mps 705 mmHg 34%
    11:00 +23°C° 0 mm 2 mps 705 mmHg 32%
    12:00 +24°C° 0 mm 2 mps 705 mmHg 31%
    13:00 +24°C° 0 mm 3 mps 705 mmHg 30%
    14:00 +25°C° 0 mm 4 mps 704 mmHg 29%
    15:00 +25°C° 0 mm 4 mps 704 mmHg 28%
    16:00 +23°C° 0 mm 4 mps 704 mmHg 30%
    17:00 +22°C° 0 mm 3 mps 704 mmHg 32%
    18:00 +21°C° 0 mm 3 mps 704 mmHg 34%
    19:00 +21°C° 0 mm 2 mps 704 mmHg 36%
    20:00 +20°C° 0 mm 2 mps 704 mmHg 38%
    21:00 +19°C° 0 mm 2 mps 705 mmHg 40%
    22:00 +18°C° 0 mm 2 mps 705 mmHg 42%
    23:00 +18°C° 0 mm 2 mps 705 mmHg 44%

    27 October, Friday

    Time Temperature Precipitation Wind Pressure Humidity
    00:00 +18°C° 0 mm 1 mps 705 mmHg 46%
    01:00 +18°C° 0 mm 1 mps 704 mmHg 48%
    02:00 +18°C° 0 mm 1 mps 704 mmHg 49%
    03:00 +16°C° 0 mm 1 mps 704 mmHg 51%
    04:00 +16°C° 0 mm 1 mps 704 mmHg 52%
    05:00 +15°C° 0 mm 1 mps 704 mmHg 53%
    06:00 +15°C° 0 mm 1 mps 704 mmHg 54%
    07:00 +16°C° 0 mm 1 mps 704 mmHg 50%
    08:00 +18°C° 0 mm 1 mps 705 mmHg 46%
    09:00 +20°C° 0 mm 1 mps 705 mmHg 43%
    10:00 +21°C° 0 mm 1 mps 705 mmHg 39%
    11:00 +22°C° 0 mm 1 mps 705 mmHg 35%
    12:00 +23°C° 0 mm 2 mps 704 mmHg 31%
    13:00 +23°C° 0 mm 2 mps 704 mmHg 29%
    14:00 +24°C° 0 mm 2 mps 703 mmHg 27%
    15:00 +24°C° 0 mm 2 mps 703 mmHg 25%
    16:00 +23°C° 0 mm 1 mps 703 mmHg 26%
    17:00 +22°C° 0 mm 1 mps 702 mmHg 27%
    18:00 +21°C° 0 mm 1 mps 702 mmHg 29%
    19:00 +21°C° 0 mm 1 mps 702 mmHg 30%
    20:00 +20°C° 0 mm 1 mps 702 mmHg 31%
    21:00 +19°C° 0 mm 1 mps 702 mmHg 32%
    22:00 +19°C° 0 mm 1 mps 702 mmHg 33%
    23:00 +18°C° 0 mm 1 mps 702 mmHg 33%

    28 October, Saturday

    Time Temperature Precipitation Wind Pressure Humidity
    00:00 +18°C° 0 mm 1 mps 702 mmHg 33%
    01:00 +18°C° 0 mm 1 mps 702 mmHg 34%
    02:00 +16°C° 0 mm 1 mps 701 mmHg 35%
    03:00 +16°C° 0 mm 1 mps 701 mmHg 35%
    04:00 +16°C° 0 mm 1 mps 701 mmHg 36%
    05:00 +16°C° 0 mm 1 mps 701 mmHg 37%
    06:00 +15°C° 0 mm 1 mps 701 mmHg 38%
    07:00 +16°C° 0.1 mm 2 mps 701 mmHg 38%
    08:00 +17°C° 0.1 mm 2 mps 702 mmHg 39%
    09:00 +18°C° 0.1 mm 3 mps 702 mmHg 40%
    10:00 +19°C° 0 mm 3 mps 702 mmHg 41%
    11:00 +20°C° 0 mm 3 mps 701 mmHg 43%
    12:00 +21°C° 0 mm 3 mps 701 mmHg 44%
    13:00 +21°C° 0.1 mm 3 mps 701 mmHg 45%
    14:00 +21°C° 0.1 mm 3 mps 700 mmHg 45%
    15:00 +21°C° 0.1 mm 3 mps 700 mmHg 46%
    16:00 +21°C° 0.6 mm 3 mps 700 mmHg 50%
    17:00 +20°C° 0.6 mm 3 mps 700 mmHg 55%
    18:00 +19°C° 0.6 mm 2 mps 700 mmHg 59%
    19:00 +18°C° 0.7 mm 2 mps 700 mmHg 61%
    20:00 +18°C° 0.7 mm 2 mps 700 mmHg 64%
    21:00 +19°C° 0.7 mm 1 mps 701 mmHg 66%
    22:00 +18°C° 0 mm 1 mps 701 mmHg 68%
    23:00 +16°C° 0 mm 1 mps 701 mmHg 71%
    Show more